Wetbulb
66.58 64.49 63.00 63.31 64.11 63.81 64.47 63.65 63.63 64.61 62.67 62.67 63.22 64.11 63.98 63.76 64.00 64.56 63.97 69.93 70.33 69.80 69.93 69.72 69.43 69.52 70.57 71.31 72.01 71.64 71.36 71.31 70.76 70.37 70.62 69.38 68.48 67.65 67.31 67.34 67.01 68.53 68.70
65.76 64.74 64.39 64.52 63.66 63.44 62.26 63.07 62.44 62.17 61.31 61.83 61.63 62.86 63.68 63.93 64.34 64.43 64.42 64.83 69.36 69.06 69.35 69.26 69.37 69.17 69.74 71.49 71.42 71.66 71.50 70.99 70.73 70.17 69.75 69.40 68.54 67.76 68.07 68.08 68.49 68.70 68.41
64.89 64.98 63.93 64.01 64.06 63.78 63.29 63.07 62.91 62.83 62.32 61.76 61.67 61.87 61.84 63.41 63.34 63.38 64.30 66.34 65.93 68.65 69.26 69.70 69.74 69.59 69.51 71.15 71.66 71.82 71.29 71.25 70.82 70.32 69.70 69.48 69.31 69.23 68.94 68.68 68.84 69.49 67.82
65.22 64.88 64.17 63.63 63.93 63.67 62.91 62.37 62.10 61.50 61.79 61.55 60.29 60.10 61.60 62.81 62.06 63.93 63.75 65.30 64.06 64.56 68.03 68.67 69.53 70.21 70.15 70.68 71.79 71.59 71.05 70.93 70.28 69.90 69.72 69.53 68.96 68.86 68.97 68.82 69.10 67.61 66.52
66.84 64.88 64.45 63.77 64.13 63.66 63.03 62.57 61.72 61.23 60.30 60.59 60.75 60.13 60.45 61.33 61.67 64.00 62.68 61.93 63.26 64.15 64.61 67.95 68.47 69.49 70.26 70.75 71.88 71.68 71.36 70.76 70.15 69.71 69.55 69.14 68.69 68.89 68.90 68.42 67.24 66.26 65.74
66.67 65.28 64.36 63.71 64.00 62.59 61.61 61.59 61.00 60.75 59.87 59.71 61.38 61.02 60.67 61.17 61.83 61.85 61.97 63.33 62.45 62.75 63.31 64.13 65.87 66.80 69.80 70.85 71.98 71.56 71.76 71.04 70.23 69.87 69.11 68.80 68.90 68.74 68.04 67.46 66.61 66.05 65.15
66.28 65.30 65.30 63.76 63.46 62.36 61.62 61.67 60.61 59.63 58.59 59.45 58.86 58.95 58.33 59.87 60.21 60.88 61.50 61.53 61.59 61.63 61.22 64.92 65.08 66.14 67.01 70.65 70.44 71.39 71.59 71.28 70.53 69.49 68.66 68.30 68.14 68.15 67.92 67.02 66.88 66.21 64.15
64.54 64.19 63.38 63.13 61.85 62.11 61.59 61.38 60.93 57.89 57.33 58.41 56.65 57.63 54.75 56.25 58.21 60.47 60.80 61.43 60.16 61.55 62.84 64.79 64.59 65.45 65.64 67.44 68.29 70.07 71.02 70.92 70.49 69.29 68.27 67.69 68.00 68.03 67.32 67.17 66.72 65.49 63.13
64.74 63.75 63.61 62.43 62.65 62.34 59.93 59.51 59.65 58.67 56.43 57.87 57.91 54.77 51.90 51.75 54.29 57.95 59.68 60.95 62.61 61.46 61.71 64.02 64.72 64.84 64.74 67.01 68.61 69.67 69.65 69.82 70.25 69.13 68.41 67.96 67.86 67.19 67.15 66.83 66.28 63.64 61.47
65.64 64.63 63.92 62.77 61.62 61.18 60.21 59.95 61.09 59.61 58.79 57.15 57.89 59.20 57.59 56.67 52.09 51.46 56.53 58.74 60.13 60.48 60.04 61.82 63.34 63.61 63.50 64.27 68.16 69.50 68.30 68.56 69.85 68.90 67.83 68.32 67.68 66.78 66.39 66.18 64.84 61.55 63.31
63.95 64.51 63.41 62.34 61.66 61.00 60.39 60.22 59.79 59.31 58.73 57.45 56.79 56.29 56.71 56.21 57.69 53.19 51.33 54.72 57.33 58.78 60.67 61.63 61.55 62.00 63.76 63.48 63.67 66.47 66.45 66.80 67.36 66.97 67.41 67.68 66.98 66.69 65.82 64.27 63.48 64.07 63.63
62.39 63.24 63.62 62.11 61.67 61.01 60.73 60.31 60.07 59.65 59.87 59.78 60.06 59.30 57.71 55.23 54.29 53.96 52.16 53.59 54.46 56.95 59.20 61.14 62.21 61.57 61.53 62.86 64.20 65.14 64.30 64.25 63.83 64.39 65.43 65.90 65.55 65.54 63.33 63.77 64.27 63.93 63.60
61.61 61.54 61.63 61.37 61.10 61.19 61.69 61.47 60.73 60.46 60.38 60.14 59.20 58.53 58.97 58.25 58.29 56.15 55.13 54.11 55.38 58.40 60.65 62.18 63.87 63.12 63.22 64.42 64.44 65.06 64.85 63.26 62.37 62.28 62.68 62.65 62.68 63.17 64.16 64.55 64.05 63.91 63.74
61.38 61.57 61.45 61.58 62.04 62.27 62.05 61.40 60.87 60.01 60.25 59.42 59.82 59.51 60.06 59.48 61.47 59.07 56.53 56.91 56.05 58.16 59.36 59.47 62.22 64.18 63.54 63.78 64.83 64.19 62.63 61.15 60.36 59.31 59.26 60.31 62.23 62.80 63.15 63.38 63.50 63.32 63.65
61.56 61.65 61.70 61.65 62.04 61.77 61.66 61.21 60.04 60.72 60.55 58.96 59.42 59.17 59.42 60.57 59.82 57.58 58.67 59.98 57.37 54.90 56.27 58.98 58.96 63.59 63.84 63.28 63.19 62.22 61.55 60.66 60.00 58.88 59.18 59.94 60.41 60.85 61.04 61.09 61.40 61.43 61.66
61.43 61.33 62.03 62.23 61.87 61.59 61.78 62.00 60.52 61.26 59.63 59.78 59.41 59.27 59.67 60.18 60.25 60.77 58.99 57.85 58.55 56.27 54.76 59.38 59.69 61.87 62.78 62.07 62.00 61.22 61.16 60.66 59.75 59.08 58.89 58.59 58.42 58.61 58.88 58.89 59.20 59.08 59.02
61.34 61.75 62.92 62.52 61.82 61.93 62.33 60.79 60.08 61.62 60.92 60.19 60.75 59.45 59.49 59.51 60.00 59.96 60.81 58.25 57.87 57.45 56.83 58.42 60.21 60.41 59.46 60.30 60.54 61.09 61.52 61.23 60.07 59.09 58.91 57.71 56.94 56.95 57.28 57.34 57.27 57.26 57.43
60.61 61.35 62.30 62.56 62.63 62.33 61.21 60.58 60.41 61.03 61.29 60.61 59.57 60.00 59.07 62.28 60.52 60.09 60.08 59.42 58.86 59.35 58.03 56.99 58.96 58.42 58.21 59.58 60.24 60.08 60.28 60.87 59.98 58.49 57.13 56.47 55.87 55.38 54.94 54.34 54.17 54.21 53.94
61.12 62.23 62.10 62.46 62.39 62.06 60.83 61.04 61.60 61.05 61.70 61.60 61.37 60.97 60.61 61.36 59.78 60.04 60.39 60.04 60.18 59.94 59.24 58.13 57.39 58.94 59.32 59.82 59.24 59.58 59.24 58.70 59.05 57.73 55.43 54.89 54.08 53.35 52.69 52.08 51.55 51.23 50.41
61.21 62.11 62.06 62.24 61.65 60.80 61.20 60.94 60.87 61.03 61.43 62.11 62.16 61.54 60.86 60.46 60.23 60.49 60.28 60.03 59.91 59.26 58.68 57.63 57.65 57.71 57.91 58.39 58.21 56.53 55.87 57.39 55.54 54.66 53.72 52.72 52.08 52.16 51.40 50.99 50.85 49.82 48.00
61.85 63.20 61.29 60.66 60.46 61.03 60.46 59.96 62.33 61.93 61.61 61.35 61.24 61.15 60.65 59.85 59.80 60.15 60.78 60.18 59.33 58.35 57.51 56.89 56.07 56.03 55.89 56.19 55.15 55.87 53.66 53.86 52.99 51.85 49.63 48.59 47.64 47.61 48.41 49.85 49.92 48.39 46.16
62.92 61.89 60.56 60.07 58.48 58.76 50.44 52.42 57.45 61.31 62.36 61.13 59.39 59.82 59.82 58.44 57.11 55.68 55.97 56.63 58.56 58.04 57.07 56.43 55.79 54.97 54.83 54.52 55.67 54.67 53.40 52.00 49.32 51.61 49.31 47.60 47.55 45.73 44.56 44.66 46.49 45.55 44.92
60.66 60.55 59.51 59.30 57.19 55.47 47.06 47.06 50.69 62.59 62.40 60.96 59.70 59.86 60.27 59.17 58.88 57.51 52.73 53.01 53.11 52.70 55.61 57.69 56.03 54.73 53.89 55.09 55.26 54.00 53.12 52.44 50.47 50.90 49.67 45.70 45.25 41.80 42.72 43.85 44.49 44.17 43.72
59.79 60.15 59.39 58.01 56.95 53.39 46.32 45.79 49.44 61.41 60.81 62.00 60.63 59.82 60.58 60.55 58.86 59.76 59.37 58.96 58.95 58.88 58.59 58.94 57.58 56.52 56.06 56.76 55.98 55.05 54.49 52.40 52.35 52.02 50.37 44.91 44.65 42.08 40.87 40.90 43.39 43.01 42.42
59.65 59.95 59.46 57.13 55.87 53.14 46.52 45.81 56.03 60.81 60.44 60.59 61.10 60.02 60.58 59.17 49.58 51.16 59.38 58.19 57.83 56.85 51.37 50.36 50.16 49.05 48.30 49.50 54.61 57.98 53.58 51.51 50.51 50.04 51.70 46.33 44.57 41.62 39.55 38.18 39.78 42.88 41.47
59.59 60.97 59.83 57.65 54.22 54.65 47.62 45.81 53.06 60.06 58.80 59.52 58.91 57.72 51.41 55.27 47.44 49.98 59.09 58.42 56.95 57.05 57.53 56.63 54.63 51.43 52.07 51.01 51.76 57.56 55.19 52.56 51.98 49.51 51.94 47.70 44.60 43.69 40.00 39.60 37.58 38.90 37.55
MSLP
1009.71 1010.02 1010.16 1010.27 1010.51 1010.67 1010.91 1011.32 1011.59 1011.61 1011.84 1011.72 1011.53 1011.43 1011.64 1011.69 1011.74 1011.98 1011.72 1011.57 1011.51 1012.12 1012.67 1012.91 1012.87 1013.02 1013.47 1013.76 1014.01 1014.46 1014.93 1015.40 1015.98 1016.46 1017.01 1017.49 1018.00 1018.43 1018.91 1019.38 1019.70 1019.86 1020.37
1009.04 1009.43 1009.81 1010.14 1010.26 1010.26 1010.46 1010.75 1011.10 1011.30 1011.40 1011.46 1011.45 1011.27 1011.26 1011.20 1011.23 1011.49 1011.52 1011.64 1011.74 1012.09 1012.40 1012.65 1012.62 1012.87 1013.15 1013.37 1013.70 1014.06 1014.60 1015.19 1015.75 1016.27 1016.73 1017.32 1017.95 1018.33 1018.69 1019.16 1019.47 1019.85 1020.41
1008.45 1008.92 1009.48 1009.88 1009.94 1009.85 1009.99 1010.37 1010.70 1010.93 1011.16 1011.33 1011.41 1011.31 1011.17 1010.93 1010.97 1011.15 1011.30 1011.50 1011.68 1011.90 1012.11 1012.24 1012.31 1012.50 1012.76 1013.06 1013.39 1013.75 1014.36 1014.88 1015.45 1016.01 1016.54 1017.20 1017.63 1018.06 1018.64 1019.14 1019.52 1019.74 1020.15
1007.78 1008.54 1009.13 1009.51 1009.52 1009.69 1010.10 1010.38 1010.62 1010.88 1011.11 1011.21 1011.32 1011.19 1010.95 1010.90 1010.91 1010.75 1010.88 1011.27 1011.49 1011.65 1011.83 1011.93 1012.14 1012.29 1012.56 1012.79 1013.17 1013.40 1014.09 1014.53 1015.08 1015.79 1016.49 1017.12 1017.80 1018.19 1018.48 1019.08 1019.52 1020.06 1020.57
1007.38 1008.20 1008.80 1009.13 1009.28 1009.75 1010.04 1010.27 1010.59 1010.79 1011.01 1011.08 1011.19 1011.10 1010.97 1010.77 1010.72 1010.64 1010.76 1010.79 1011.18 1011.35 1011.42 1011.56 1011.70 1012.08 1012.36 1012.54 1012.74 1013.11 1013.60 1014.27 1014.97 1015.74 1016.49 1017.11 1017.85 1018.35 1018.80 1019.16 1019.91 1020.48 1020.80
1007.11 1007.87 1008.45 1008.82 1009.18 1009.52 1009.92 1010.11 1010.36 1010.54 1010.68 1010.84 1010.97 1010.99 1010.86 1010.72 1010.69 1010.62 1010.60 1010.43 1010.67 1010.89 1011.08 1011.21 1011.53 1011.95 1012.14 1012.37 1012.45 1012.81 1013.30 1014.02 1014.87 1015.62 1016.38 1017.11 1017.75 1018.37 1018.93 1019.50 1020.15 1020.74 1021.10
1006.85 1007.55 1007.97 1008.55 1008.85 1009.18 1009.47 1009.65 1009.96 1010.38 1010.59 1010.61 1011.04 1010.89 1010.83 1010.65 1010.57 1010.47 1010.60 1010.46 1010.45 1010.50 1010.75 1010.99 1011.29 1011.64 1011.91 1012.19 1012.35 1012.60 1013.08 1013.78 1014.61 1015.42 1016.27 1016.89 1017.77 1018.33 1019.02 1019.63 1020.19 1020.76 1021.28
1006.85 1007.32 1007.68 1008.11 1008.62 1008.82 1009.06 1009.36 1009.65 1010.19 1010.47 1010.54 1010.87 1011.05 1011.09 1010.85 1010.54 1010.28 1010.46 1010.49 1010.48 1010.46 1010.63 1010.77 1010.90 1011.27 1011.67 1011.96 1012.36 1012.49 1013.01 1013.73 1014.43 1015.38 1016.27 1016.93 1017.59 1018.34 1019.16 1019.93 1020.46 1021.08 1021.53
1006.67 1007.07 1007.50 1007.98 1008.24 1008.49 1008.87 1009.15 1009.51 1009.90 1010.33 1010.37 1010.30 1010.72 1011.06 1010.92 1010.69 1010.20 1010.30 1010.27 1010.24 1010.35 1010.39 1010.68 1010.76 1011.16 1011.39 1011.72 1012.07 1012.42 1013.03 1013.75 1014.39 1015.29 1016.21 1016.93 1017.75 1018.67 1019.33 1020.18 1020.67 1021.17 1021.76
1006.62 1006.91 1007.40 1007.79 1008.09 1008.25 1008.53 1008.75 1008.96 1009.39 1009.86 1010.13 1010.26 1010.19 1010.32 1010.82 1010.95 1010.66 1010.38 1010.35 1010.25 1010.43 1010.66 1010.88 1011.12 1011.33 1011.47 1011.69 1011.91 1012.45 1013.01 1013.69 1014.27 1015.33 1016.39 1017.01 1017.82 1018.63 1019.60 1020.20 1020.85 1021.49 1021.88
1006.60 1006.95 1007.37 1007.62 1007.82 1008.02 1008.13 1008.32 1008.56 1008.91 1009.22 1009.55 1009.81 1010.06 1010.22 1010.71 1010.75 1011.04 1010.74 1010.60 1010.61 1010.62 1010.51 1010.91 1011.36 1011.61 1011.72 1012.05 1012.20 1012.50 1013.08 1013.75 1014.26 1015.18 1016.09 1017.17 1017.89 1018.69 1019.62 1020.45 1020.94 1021.43 1022.17
1006.84 1006.97 1007.21 1007.41 1007.63 1007.73 1007.93 1008.14 1008.33 1008.56 1008.81 1008.95 1009.18 1009.39 1009.60 1010.13 1010.08 1010.57 1010.73 1010.88 1010.91 1011.04 1011.05 1011.24 1011.65 1011.94 1012.00 1012.29 1012.45 1012.70 1013.24 1013.80 1013.07 1015.69 1016.50 1017.49 1018.30 1019.11 1020.20 1020.55 1020.98 1021.93 1022.29
1006.88 1006.96 1007.02 1007.33 1007.38 1007.52 1007.76 1007.88 1008.02 1008.15 1008.28 1008.60 1008.72 1008.76 1008.83 1009.14 1009.16 1009.53 1009.99 1010.44 1010.94 1011.43 1011.71 1011.65 1011.96 1012.10 1012.37 1012.43 1012.76 1013.07 1013.32 1014.21 1014.97 1016.18 1016.42 1017.85 1018.90 1019.79 1020.30 1020.89 1021.28 1022.02 1022.40
1006.64 1006.69 1006.96 1007.08 1007.21 1007.36 1007.58 1007.59 1007.79 1007.97 1008.00 1008.21 1008.24 1008.24 1008.43 1008.85 1008.55 1009.05 1009.18 1009.75 1011.03 1011.63 1012.01 1012.19 1012.25 1012.46 1012.62 1012.81 1013.02 1013.70 1014.53 1015.07 1015.81 1016.43 1017.46 1018.44 1019.36 1019.79 1020.53 1021.06 1021.50 1022.25 1022.69
1006.42 1006.62 1006.85 1006.94 1007.08 1007.16 1007.27 1007.52 1007.75 1007.75 1007.85 1008.06 1008.06 1008.00 1008.30 1008.49 1008.74 1008.55 1008.69 1009.49 1010.47 1011.41 1012.15 1012.49 1012.62 1012.72 1012.93 1013.36 1013.83 1014.45 1015.06 1015.46 1016.13 1017.03 1018.25 1019.03 1019.39 1020.05 1020.76 1021.25 1021.98 1022.59 1022.93
1006.48 1006.58 1006.75 1006.85 1006.94 1006.92 1007.09 1007.34 1007.58 1007.57 1007.89 1007.99 1008.01 1008.18 1008.16 1008.19 1008.31 1008.64 1009.00 1009.48 1009.99 1010.58 1011.71 1012.44 1012.79 1012.76 1013.20 1014.00 1014.48 1015.00 1015.65 1016.37 1017.22 1018.10 1018.81 1019.37 1019.81 1020.45 1020.85 1021.76 1022.41 1022.88 1023.14
1006.39 1006.54 1006.65 1006.78 1006.87 1006.88 1007.10 1007.25 1007.47 1007.58 1007.74 1007.98 1008.12 1008.27 1008.17 1008.03 1008.24 1008.42 1008.67 1009.25 1009.84 1010.57 1011.59 1012.58 1012.98 1013.31 1013.92 1014.52 1015.31 1016.00 1016.67 1017.27 1018.11 1018.62 1019.19 1019.87 1020.28 1020.83 1021.54 1022.10 1022.62 1022.91 1023.26
1006.25 1006.35 1006.48 1006.64 1006.80 1007.12 1007.28 1007.26 1007.38 1007.56 1007.62 1007.88 1008.18 1008.29 1008.11 1007.95 1008.00 1008.57 1008.71 1009.35 1009.97 1010.85 1011.49 1012.28 1013.14 1013.83 1014.36 1015.12 1015.78 1016.45 1017.12 1017.95 1018.70 1019.43 1019.89 1020.30 1020.92 1021.46 1021.87 1022.30 1022.73 1023.21 1023.81
1006.15 1006.29 1006.43 1006.67 1007.03 1007.31 1007.38 1007.32 1007.30 1007.39 1007.46 1007.57 1007.79 1008.16 1008.21 1008.31 1008.60 1008.78 1009.23 1009.82 1010.47 1011.19 1011.94 1012.47 1013.36 1014.17 1014.83 1015.48 1016.13 1016.89 1017.69 1018.41 1019.29 1020.01 1020.62 1021.06 1021.67 1022.11 1022.55 1022.95 1023.33 1023.80 1024.24
1006.10 1006.38 1006.73 1006.95 1007.21 1007.45 1007.46 1007.40 1007.37 1007.41 1007.62 1007.70 1007.94 1008.30 1008.47 1008.57 1008.81 1009.11 1009.77 1010.28 1010.87 1011.49 1012.30 1012.93 1013.64 1014.42 1015.16 1015.86 1016.41 1017.40 1018.60 1019.59 1020.37 1021.20 1021.60 1022.02 1022.53 1022.98 1023.25 1023.59 1023.95 1024.30 1024.62
1006.18 1006.68 1007.02 1007.31 1007.39 1007.78 1007.91 1007.75 1007.47 1007.40 1007.75 1008.03 1008.28 1008.46 1008.68 1008.78 1009.04 1009.23 1009.68 1010.50 1011.10 1011.77 1012.57 1013.14 1013.90 1014.80 1015.48 1015.95 1016.87 1018.04 1019.05 1020.12 1021.25 1021.77 1022.39 1023.19 1023.53 1023.89 1024.25 1024.35 1024.59 1024.78 1025.12
1006.48 1006.90 1007.32 1007.58 1008.03 1008.30 1008.27 1008.11 1007.88 1007.78 1007.94 1008.30 1008.59 1008.93 1009.13 1009.20 1009.58 1009.84 1010.22 1010.64 1011.07 1011.64 1012.58 1013.26 1013.98 1014.72 1015.94 1016.80 1017.62 1018.31 1019.24 1020.31 1021.67 1022.22 1022.75 1023.78 1024.03 1024.60 1024.90 1025.01 1025.21 1025.35 1025.53
1006.88 1007.33 1007.66 1007.91 1008.44 1008.74 1008.65 1008.40 1008.10 1008.02 1008.17 1008.55 1008.85 1009.11 1009.40 1009.82 1010.06 1010.47 1010.88 1011.33 1011.83 1012.27 1012.42 1012.99 1014.15 1015.27 1016.21 1016.84 1017.48 1018.72 1019.26 1019.81 1020.76 1022.04 1022.59 1024.23 1024.70 1025.17 1025.58 1025.69 1025.64 1025.62 1025.69
1007.09 1007.47 1007.99 1008.26 1008.70 1009.20 1008.88 1008.68 1008.39 1008.36 1008.52 1008.78 1009.04 1009.42 1009.68 1010.10 1010.55 1010.85 1011.30 1011.97 1012.60 1013.23 1013.61 1014.11 1014.32 1015.30 1016.03 1017.07 1017.37 1017.89 1019.05 1020.09 1021.28 1021.97 1022.31 1024.14 1024.96 1025.62 1026.01 1025.99 1025.97 1025.97 1026.16
1007.28 1007.70 1008.10 1008.54 1009.04 1009.47 1009.20 1008.99 1008.75 1008.84 1009.06 1009.34 1009.64 1009.97 1010.28 1010.73 1011.07 1011.35 1011.74 1012.49 1013.21 1014.08 1014.49 1014.86 1015.37 1015.93 1016.95 1017.38 1017.78 1018.57 1019.49 1020.30 1021.48 1022.07 1022.24 1023.36 1024.63 1025.35 1025.86 1026.13 1026.12 1026.13 1026.33
1007.44 1007.67 1008.28 1008.57 1008.90 1009.37 1009.49 1009.30 1009.28 1009.37 1009.67 1010.00 1010.36 1010.76 1010.95 1011.35 1011.68 1011.92 1012.31 1012.79 1013.65 1014.35 1014.99 1015.82 1016.60 1017.22 1017.58 1018.19 1018.29 1018.54 1019.08 1019.89 1020.85 1022.04 1021.89 1022.54 1023.85 1024.38 1025.47 1025.53 1025.87 1025.99 1026.08
Wind_Speed
5 5 5 4 4 4 5 4 4 4 5 6 5 4 5 5 5 3 2 7 12 15 15 15 14 14 12 12 13 16 18 18 18 16 16 18 15 15 13 12 10 10 12
5 5 4 4 5 5 5 4 4 4 3 2 5 5 5 4 4 5 3 3 9 11 12 14 14 15 14 13 14 18 17 19 19 19 19 18 18 16 15 13 11 13 14
7 6 4 3 4 3 4 3 3 2 2 3 5 5 5 5 4 3 5 4 6 14 14 14 14 15 15 14 15 18 19 21 21 21 21 19 18 15 15 13 13 20 19
8 5 3 3 4 3 3 2 2 3 3 4 3 5 4 4 5 5 4 4 5 5 11 16 14 14 15 14 16 19 21 23 21 21 21 20 18 17 17 17 19 21 20
7 6 4 4 5 4 3 3 3 3 3 3 3 4 3 2 3 4 6 6 7 6 4 12 15 15 15 16 16 19 24 23 21 23 21 20 20 19 18 21 21 20 22
8 6 4 4 5 4 3 3 5 4 3 4 3 4 3 4 3 4 5 4 5 6 6 6 7 8 14 15 16 20 23 25 24 23 22 21 20 20 22 22 21 20 20
7 6 5 5 4 4 5 5 4 5 3 2 2 1 2 4 5 4 3 4 5 6 5 4 6 5 7 14 15 19 24 27 27 25 23 22 22 22 24 23 22 21 21
7 6 6 5 5 4 5 4 4 1 2 3 3 1 2 3 2 4 3 4 6 5 5 6 6 6 5 5 8 19 24 27 28 27 23 21 22 23 24 21 20 20 18
6 6 6 4 5 3 2 3 5 6 4 3 5 4 1 3 0 1 5 3 6 4 2 6 6 4 5 6 8 16 22 25 29 28 25 23 23 25 24 22 21 20 15
5 6 4 4 4 3 4 4 5 4 4 4 1 4 3 3 0 1 2 1 3 3 2 3 4 4 5 4 10 16 21 25 27 27 24 25 27 27 25 23 20 18 15
5 5 5 4 4 4 4 4 4 5 4 4 3 2 4 3 1 1 2 1 2 2 1 4 5 4 5 6 4 8 15 20 25 25 25 26 27 27 25 22 19 18 16
2 3 5 4 5 4 4 3 5 5 5 4 4 4 4 5 5 3 2 2 4 1 1 4 5 4 4 5 6 9 16 9 21 17 23 25 25 25 22 20 19 16 15
1 3 3 4 3 4 4 4 4 4 5 3 4 4 4 5 3 4 3 3 4 3 3 4 6 6 5 5 7 14 24 23 20 17 25 25 24 22 20 17 17 14 14
3 4 4 5 5 4 4 4 2 3 3 3 4 4 2 2 2 3 5 6 4 3 3 3 2 6 6 6 13 17 13 26 29 28 25 22 18 18 15 14 13 12 12
3 4 5 4 4 5 4 3 3 4 3 3 1 2 2 3 4 2 4 7 5 4 2 2 2 5 7 8 13 12 15 28 28 28 25 18 19 16 15 13 11 11 11
4 5 4 4 3 3 3 5 3 3 5 1 2 3 1 2 5 4 4 4 4 7 5 2 2 6 9 9 16 14 17 22 23 20 16 16 16 15 16 14 13 12 11
6 6 5 4 4 3 3 3 4 4 5 3 2 4 2 1 3 2 3 4 5 5 8 3 2 10 11 14 14 14 14 13 12 19 17 14 16 15 15 13 12 12 13
5 6 6 6 4 5 3 3 4 4 4 4 5 4 2 1 3 4 5 7 8 8 11 11 8 9 14 15 16 13 10 12 12 15 17 16 14 12 12 13 13 13 11
4 4 4 6 6 5 4 3 4 3 5 4 3 4 3 4 4 6 8 8 8 9 9 9 10 9 7 11 13 12 11 13 10 19 16 15 12 14 13 13 13 12 12
5 5 6 7 6 5 3 3 3 1 5 4 6 7 5 5 7 9 9 10 10 10 10 10 10 10 10 10 13 14 12 9 9 8 13 11 11 13 13 13 15 15 14
6 8 8 6 6 5 4 3 3 3 6 7 7 6 5 5 10 9 8 9 11 10 11 9 10 12 12 12 13 10 10 9 6 3 6 4 5 6 6 9 12 15 14
8 8 6 6 7 4 7 7 5 3 6 7 7 6 6 9 10 12 13 11 12 16 14 10 11 13 10 11 10 11 12 9 5 1 5 6 4 5 3 3 10 11 12
7 7 6 8 6 5 7 8 7 4 6 7 6 5 6 7 10 11 14 15 14 14 11 16 15 13 14 14 12 11 11 8 4 7 10 5 2 4 3 4 8 9 10
6 6 7 7 6 4 7 9 5 6 6 7 6 6 8 9 10 13 13 14 11 12 11 8 13 11 13 10 11 10 9 8 9 7 4 4 2 2 2 2 6 7 8
4 4 7 7 6 4 6 9 5 6 7 7 7 7 9 9 11 14 15 15 13 10 11 12 11 16 13 12 10 7 7 10 7 4 2 5 4 3 3 3 3 7 8
6 5 7 6 8 5 6 8 5 5 7 7 7 8 10 10 12 13 15 16 14 12 12 9 8 10 10 7 10 5 9 10 6 3 5 5 4 5 3 3 4 4 4
Wind_Direction
192 200 220 183 183 171 192 209 204 196 212 234 243 232 205 216 231 198 197 280 188 186 194 194 187 183 188 195 190 195 194 180 169 155 156 151 159 154 161 168 154 142 149
179 187 206 221 178 184 183 166 174 176 186 225 262 252 237 228 259 196 200 205 185 187 200 206 196 195 195 198 193 190 188 174 168 167 166 161 163 169 169 183 179 165 161
173 171 192 218 208 189 164 153 167 176 201 233 247 269 260 235 237 213 187 187 181 191 204 211 207 199 198 200 195 190 186 172 173 175 165 165 162 159 156 160 164 154 126
163 171 193 206 205 165 157 161 189 219 221 227 223 265 275 208 227 222 194 180 185 199 213 206 205 205 202 205 198 192 183 170 175 167 162 158 157 153 153 156 141 124 121
162 162 184 205 150 148 175 179 222 193 215 234 233 247 250 252 230 220 209 200 190 205 191 215 200 209 209 206 198 193 181 178 169 163 157 151 157 156 141 133 125 128 128
167 171 192 211 163 154 207 186 207 221 191 216 238 228 227 227 236 247 230 226 203 206 205 187 199 208 206 214 200 193 183 174 166 160 155 159 159 152 141 132 136 132 129
173 184 175 167 168 194 206 198 184 204 245 230 218 277 279 247 254 244 261 245 245 235 197 172 183 180 196 211 207 191 182 173 163 157 159 156 159 152 142 142 143 142 145
165 164 172 175 198 199 221 206 171 148 217 190 147 92 327 319 275 244 233 235 220 231 172 169 176 174 183 183 198 186 181 174 163 157 153 152 154 149 142 145 142 136 134
140 144 157 186 197 197 221 192 179 184 200 212 185 148 162 238 155 259 232 244 188 201 146 179 173 159 166 162 184 179 175 169 161 158 158 152 144 141 141 142 140 139 131
145 149 153 160 176 187 196 210 196 188 160 203 202 228 233 112 187 344 15 206 167 202 216 136 135 127 115 109 167 171 170 167 164 161 160 147 146 141 142 141 137 136 151
127 156 163 179 187 189 206 203 187 193 184 171 180 158 215 49 152 207 168 225 27 256 108 132 132 126 121 113 112 161 169 181 164 156 151 148 146 144 142 137 142 136 150
163 180 178 162 186 190 208 214 205 195 194 200 197 201 180 160 211 186 158 218 152 325 98 122 120 100 102 121 133 153 154 113 120 150 149 139 139 129 135 137 132 146 144
181 214 151 159 182 198 211 201 188 196 192 190 204 212 201 205 187 171 138 169 117 54 52 53 121 125 115 128 135 128 138 147 145 146 130 128 125 135 134 138 139 151 146
166 174 159 173 202 198 198 195 172 198 183 209 230 211 216 190 108 212 148 131 103 92 72 100 29 126 119 123 129 123 126 123 122 114 109 119 127 129 134 137 136 138 143
161 171 164 183 204 187 188 171 187 191 162 134 187 131 140 144 165 125 111 132 147 146 115 97 130 126 122 115 117 120 127 123 117 116 133 141 136 134 133 124 122 119 113
126 141 144 159 146 172 150 155 189 165 128 119 61 76 93 176 159 160 157 147 139 142 123 112 71 119 117 120 120 116 112 112 120 120 120 124 120 123 111 116 114 113 100
151 152 161 159 169 167 122 144 134 132 145 134 77 73 68 33 168 159 151 124 119 115 123 96 82 117 114 122 124 121 122 122 117 119 113 112 110 110 119 119 112 104 105
160 158 178 169 151 114 93 155 177 199 153 147 151 113 45 7 102 110 104 107 105 120 135 130 121 121 122 123 126 125 123 120 128 119 116 107 109 118 109 108 112 112 116
181 170 139 111 102 94 86 83 115 103 104 145 97 143 70 56 90 88 86 111 118 118 121 127 122 127 122 125 115 99 102 101 91 91 88 88 96 97 106 111 112 115 113
161 125 102 94 102 97 84 59 81 57 114 116 108 114 122 138 144 112 103 113 123 119 121 123 122 124 121 123 114 117 111 104 102 79 71 84 93 97 102 106 112 113 113
122 113 102 97 90 69 36 11 17 65 100 87 98 97 87 92 104 118 130 131 131 129 130 121 123 124 122 116 118 115 108 109 77 85 91 81 88 84 83 99 119 124 118
113 109 112 110 94 78 46 36 34 79 100 103 104 97 88 101 108 111 114 127 138 137 135 124 123 119 116 121 123 128 126 132 119 355 104 87 88 84 85 72 108 115 120
111 123 115 108 107 84 32 15 13 101 106 109 117 103 94 106 112 111 97 95 81 71 118 138 131 135 133 144 135 138 142 135 123 145 113 93 68 81 64 94 118 131 132
128 125 115 112 106 72 26 7 17 95 96 109 106 100 104 107 121 121 114 111 104 107 116 125 133 138 135 144 143 143 135 101 102 137 124 109 143 88 109 116 144 138 137
133 116 125 116 111 90 22 19 44 83 77 79 90 88 108 110 116 120 118 117 106 91 69 87 107 114 122 123 135 124 125 130 134 172 175 113 176 129 166 195 196 177 173
119 116 114 118 123 119 41 26 35 103 92 92 88 90 90 116 121 125 128 130 130 132 123 109 97 104 113 79 141 121 148 149 140 109 220 107 141 150 179 196 175 180 189